* Astronomy

Members Login
Username 
 
Password 
    Remember Me  
Post Info TOPIC: Asteroid 2012 HH20


L

Posts: 131433
Date:
Asteroid 2012 HH20
Permalink  
 


Orbital elements:
2012 HH20                                                Earth MOID = 0.0496 AU
Epoch 2012 Mar. 14.0 TT = JDT 2456000.5                 MPC
M  50.42721              (2000.0)            P               Q
n   0.93979751     Peri.   64.20028     -0.03572748     -0.99237642
a   1.0322380      Node    28.60901     +0.80581480     -0.09841575
e   0.2887206      Incl.   14.26062     +0.59108887     +0.07418471
P   1.05           H   24.5           G   0.15           U   9

MPEC 2012 - H74



__________________
Page 1 of 1  sorted by
 
Quick Reply

Please log in to post quick replies.



Create your own FREE Forum
Report Abuse
Powered by ActiveBoard